Location: Boissi�res
(45.2500°N, 2.3667°E)
Time: 23:59:58
(UTC+00:00)

Cosmos 2278 Rocket - Pass Details

Date: 03 March 2021
Orbit: 841 x 845 km, 71.0° (Epoch: 18 April)

Event Time Altitude Azimuth Distance (km) Brightness Sun altitude
Rises 20:23:38 0° 335° (NNW) 3,414 6.0 -29.0°
Reaches altitude 10° 20:26:07 10° 338° (NNW) 2,475 5.1 -29.4°
Enters shadow 20:30:23 50° 0° (N) 1,069 2.7 -30.1°
